Chihuahua, Mexico

8:14 PM MDT on July 23, 2016 (GMT -0600)
Gen Div P A Roberto Fierro

Weather History for MMCU - November, 2012

Change the Weather History Date:

Sunday, November 4, 2012

  Actual Average Record
Temperature  
Mean Temperature 62 °F -  
Max Temperature 78 °F 69 °F 84 °F (2011)
Min Temperature 46 °F 38 °F 28 °F (2004)
Degree Days  
Heating Degree Days 3    
Growing Degree Days 12 (Base 50)    
Moisture  
Dew Point 34 °F    
Average Humidity 32    
Maximum Humidity 61    
Minimum Humidity 18    
Precipitation  
Precipitation 0.00 in - - ()
Sea Level Pressure  
Sea Level Pressure 30.12 in    
Wind  
Wind Speed 4 mph ()    
Max Wind Speed 17 mph    
Max Gust Speed -    
Visibility 9.2 miles    
Events      
Averages and records for this station are not official NWS values.
T = Trace of Precipitation, MM = Missing Value Source: Averaged Metar Reports

Daily Weather History Graph

Daily Weather History Graph

Search for Another Location

Airport or City:

Trip Planner

Search our weather history database for the weather conditions in past years. The results will help you decide how hot, cold, wet, or windy it might be!

Date:

Astronomy

Nov. 04, 2012 Rise Set
Actual Time 6:18 AM MST 5:15 PM MST
Civil Twilight 5:54 AM MST 5:40 PM MST
Nautical Twilight 5:25 AM MST 6:08 PM MST
Astronomical Twilight 4:58 AM MST 6:36 PM MST
Moon 10:00 PM MST (11/4) 10:59 AM MST (11/4)
Length of Visible Light 11h 46m
Length of Day
10h 57m
Waning Gibbous, 71% of the Moon is Illuminated
Nov 4
Waning Gibbous
Nov 6
Last Quarter
Nov 13
New
Nov 20
First Quarter
Nov 28
Full

Hourly Weather History & Observations

Time (MST) Temp. Windchill Dew Point Humidity Pressure Visibility Wind Dir Wind Speed Gust Speed Precip Events Conditions
4:45 AM 56 °F - 38 °F 39% 29.94 in 6 mi NNW 2.2 mph - -  
6:40 AM 42.8 °F 40.1 °F 30.2 °F 61% 30.05 in 10.0 mi SW 4.6 mph - N/A   Clear
7:40 AM 53.6 °F - 32.0 °F 44% 30.12 in 10.0 mi South 4.6 mph - N/A   Clear
7:45 AM 55 °F - 38 °F 42% 30.02 in 6 mi Calm Calm - -  
8:40 AM 60.8 °F - 32.0 °F 34% 30.27 in 10.0 mi Calm Calm - N/A   Clear
9:40 AM 66.2 °F - 35.6 °F 32% 30.26 in 10.0 mi WNW 4.6 mph - N/A   Clear
10:45 AM 70 °F - 42 °F 25% 30.03 in 6 mi ENE 2.2 mph - -  
10:45 AM 69.8 °F - 37.4 °F 31% 30.08 in 10.0 mi NNE 3.5 mph - N/A   Clear
11:00 AM 70 °F - 42 °F 25% 30.03 in 6 mi ENE 2.2 mph - -  
11:40 AM 73.4 °F - 37.4 °F 27% 30.22 in 10.0 mi North 3.5 mph - N/A   Clear
12:40 PM 73.4 °F - 39.2 °F 29% 30.20 in 10.0 mi North 11.5 mph - N/A   Clear
1:40 PM 77.0 °F - 35.6 °F 22% 30.01 in 10.0 mi NE 10.4 mph - N/A   Clear
2:40 PM 78.8 °F - 32.0 °F 18% 30.16 in 10.0 mi ENE 17.3 mph - N/A   Clear
3:40 PM 77.0 °F - 33.8 °F 21% 30.16 in 10.0 mi East 9.2 mph - N/A   Clear
4:40 PM 73.4 °F - 32.0 °F 22% 29.99 in 10.0 mi East 5.8 mph - N/A   Clear
5:40 PM 66.2 °F - 32.0 °F 28% 30.19 in 10.0 mi ESE 5.8 mph - N/A   Clear
6:40 PM 57.2 °F - 28.4 °F 33% 30.20 in 10.0 mi ESE 5.8 mph - N/A   Clear
7:40 PM 57.2 °F - 30.2 °F 36% 30.09 in 10.0 mi SW 4.6 mph - N/A   Clear
8:40 PM 55.4 °F - 28.4 °F 36% 30.22 in 10.0 mi Calm Calm - N/A   Clear
9:40 PM 50.0 °F - 26.6 °F 40% 30.23 in 10.0 mi SSE 8.1 mph - N/A   Clear